Project,Study,Ord_Occ,Event_Num,Cast_ID,Date_Time_UTC,Date_Time_PST,Lat_Dec,Lon_Dec,Sta_ID,Line,Sta,Depth,Pressure,PrQ,Temp1,Temp1Q,Temp2,Temp2Q,TempAve,Salt1,Salt1Q,Salt1_Corr,Salt2,Salt2Q,Salt2_Corr,SaltAve_Corr,Ox1,Ox1Q,Ox1_CruiseCorr,Ox1_StaCorr,Ox2,Ox2Q,Ox2_CruiseCorr,Ox2_StaCorr,OxAve_StaCorr,Ox1uM,Ox1uM_CruiseCorr,Ox1uM_StaCorr,Ox2uM,Ox2uM_CruiseCorr,Ox2uM_StaCorr,OxAveuM_StaCorr,FluorV,FluorQ,EstChl_CruiseCorr,EstChl_StaCorr,ISUSV,ISUSQ,EstNO3_CruiseCorr,EstNO3_StaCorr,SigThetaTS1,SigThetaTS1Q,SigThetaTS2,SigThetaTS2Q,BAT,XMiss,TransQ,pH,pHQ,SPAR,SPARQ,PAR,PARQ,PoT1,PoT2,DynHt,SVA,OxSat1,OxSat2,BTL_Depth,BTL_Temp,SaltB,OxB,OxBuM,Chl-a,Phaeo,NO3,NO2,NH4,PO4,SIL
CalCOFI,2105SH,024,,2105_024u,09-May-2021 07:06:16,08-May-2021 23:06:16,33.48611,-117.77064,090.0 028.0,090.0,028.0,53.000,53.386,,10.9160,,10.9137,,10.9149,33.7234,,33.7246,33.7258,,33.7277,33.7262,2.8750,,3.0728,,2.9214,,3.0854,,,125.169,133.3505,132.3194,127.188,140.3114,132.3566,132.3380,0.0570,,0.2023,0.6700,1.4899,,0.0000,,25.7976,,25.7998,,,,,,,,,,,10.9095,10.9072,0.1400,220.171,46.058,46.800,,,,,,,,,,,,
CalCOFI,2105SH,024,,2105_024u,09-May-2021 07:08:01,08-May-2021 23:08:01,33.48636,-117.77069,090.0 028.0,090.0,028.0,52.000,52.378,,10.9394,,10.9416,,10.9405,33.7216,,33.7228,33.7209,,33.7228,33.7228,2.8664,,3.0638,,2.9100,,3.0736,,,124.794,132.9584,131.9259,126.693,139.9064,131.8525,131.8892,0.0627,,0.2443,0.7401,1.4869,,0.0000,,25.7920,,25.7911,,,,,,,,,,,10.9332,10.9353,0.1487,220.682,45.943,46.644,52,10.939,33.7152,3.011,131.09,0.304,0.375,18.91,0.402,0.77,1.64,19.67
CalCOFI,2105SH,024,,2105_024u,09-May-2021 07:08:10,08-May-2021 23:08:10,33.48638,-117.77068,090.0 028.0,090.0,028.0,51.000,51.371,,10.9530,,10.9522,,10.9526,33.7189,,33.7201,33.7208,,33.7227,33.7214,2.8789,,3.0769,,2.9176,,3.0815,,,125.339,133.5282,132.4977,127.024,140.4950,132.1896,132.3437,0.0591,,0.2178,0.6959,1.4877,,0.0000,,25.7874,,25.7890,,,,,,,,,,,10.9469,10.9460,0.1492,221.094,46.155,46.776,,,,,,,,,,,,
CalCOFI,2105SH,024,,2105_024u,09-May-2021 07:08:11,08-May-2021 23:08:11,33.48638,-117.77066,090.0 028.0,090.0,028.0,50.000,50.363,,11.0099,,10.9790,,10.9945,33.7080,,33.7092,33.7169,,33.7188,33.7140,2.8981,,3.0969,,2.9390,,3.1036,,,126.177,134.4042,133.3769,127.956,141.4000,133.1387,133.2578,0.0601,,0.2251,0.7082,1.4890,,0.0000,,25.7688,,25.7812,,,,,,,,,,,11.0039,10.9729,0.1492,222.845,46.517,47.145,,,,,,,,,,,,
CalCOFI,2105SH,024,,2105_024u,09-May-2021 07:08:12,08-May-2021 23:08:12,33.48638,-117.77066,090.0 028.0,090.0,028.0,49.000,49.356,,11.0335,,11.0197,,11.0266,33.7076,,33.7088,33.7122,,33.7141,33.7115,2.9201,,3.1199,,2.9642,,3.1297,,,127.134,135.4047,134.3809,129.056,142.4336,134.2590,134.3200,0.0601,,0.2251,0.7082,1.4907,,0.0000,,25.7642,,25.7703,,,,,,,,,,,11.0275,11.0138,0.1492,223.256,46.893,47.589,,,,,,,,,,,,
CalCOFI,2105SH,024,,2105_024u,09-May-2021 07:08:13,08-May-2021 23:08:13,33.48638,-117.77067,090.0 028.0,090.0,028.0,48.000,48.348,,11.0635,,11.0366,,11.0501,33.7046,,33.7058,33.7133,,33.7152,33.7105,2.9530,,3.1543,,2.9772,,3.1432,,,128.571,136.9069,135.8885,129.623,143.9855,134.8364,135.3625,0.0604,,0.2273,0.7118,1.4928,,0.0000,,25.7565,,25.7681,,,,,,,,,,,11.0576,11.0308,0.1492,223.966,47.452,47.816,,,,,,,,,,,,
CalCOFI,2105SH,024,,2105_024u,09-May-2021 07:08:14,08-May-2021 23:08:14,33.48638,-117.77068,090.0 028.0,090.0,028.0,47.000,47.341,,11.0832,,11.0739,,11.0786,33.7024,,33.7036,33.7050,,33.7069,33.7053,2.9613,,3.1630,,2.9857,,3.1520,,,128.933,137.2854,136.2683,129.994,144.3765,135.2142,135.7413,0.0617,,0.2369,0.7278,1.4954,,0.0000,,25.7512,,25.7549,,,,,,,,,,,11.0774,11.0682,0.1492,224.449,47.605,47.988,,,,,,,,,,,,
CalCOFI,2105SH,024,,2105_024u,09-May-2021 07:08:16,08-May-2021 23:08:16,33.48640,-117.77068,090.0 028.0,090.0,028.0,46.000,46.334,,11.1288,,11.0699,,11.0994,33.6909,,33.6921,33.7080,,33.7099,33.7010,2.9585,,3.1601,,2.9918,,3.1583,,,128.813,137.1599,136.1424,130.260,144.2469,135.4851,135.8138,0.0620,,0.2391,0.7315,1.4985,,0.0000,,25.7341,,25.7580,,,,,,,,,,,11.1231,11.0643,0.1492,226.055,47.602,48.083,,,,,,,,,,,,
CalCOFI,2105SH,024,,2105_024u,09-May-2021 07:08:17,08-May-2021 23:08:17,33.48640,-117.77066,090.0 028.0,090.0,028.0,45.000,45.326,,11.1166,,11.1166,,11.1166,33.6993,,33.7005,33.7009,,33.7028,33.7017,2.9546,,3.1560,,3.0000,,3.1668,,,128.640,136.9791,135.9609,130.615,144.0601,135.8467,135.9038,0.0622,,0.2406,0.7340,1.5022,,0.0000,,25.7428,,25.7440,,,,,,,,,,,11.1111,11.1110,0.1492,225.203,47.529,48.259,,,,,,,,,,,,
CalCOFI,2105SH,024,,2105_024u,09-May-2021 07:08:18,08-May-2021 23:08:18,33.48640,-117.77066,090.0 028.0,090.0,028.0,44.000,44.319,,11.1006,,11.0865,,11.0936,33.6986,,33.6998,33.7051,,33.7070,33.7034,2.9813,,3.1839,,3.0260,,3.1937,,,129.804,138.1959,137.1821,131.750,145.3172,137.0026,137.0924,0.0672,,0.2773,0.7955,1.5065,,0.0000,,25.7451,,25.7526,,,,,,,,,,,11.0952,11.0811,0.1492,224.959,47.942,48.649,,,,,,,,,,,,
CalCOFI,2105SH,024,,2105_024u,09-May-2021 07:08:19,08-May-2021 23:08:19,33.48640,-117.77066,090.0 028.0,090.0,028.0,43.000,43.312,,11.1550,,11.1440,,11.1495,33.6860,,33.6872,33.6982,,33.7001,33.6937,3.0321,,3.2371,,3.0506,,3.2192,,,132.019,140.5115,139.5060,132.820,147.7094,138.0923,138.7992,0.0639,,0.2531,0.7549,1.5114,,0.0000,,25.7254,,25.7369,,,,,,,,,,,11.1497,11.1387,0.1492,226.807,48.812,49.101,,,,,,,,,,,,
CalCOFI,2105SH,024,,2105_024u,09-May-2021 07:08:20,08-May-2021 23:08:20,33.48640,-117.77066,090.0 028.0,090.0,028.0,42.000,42.304,,11.2188,,11.1389,,11.1789,33.6803,,33.6815,33.7011,,33.7030,33.6923,3.0785,,3.2856,,3.0645,,3.2336,,,134.040,142.6242,141.6263,133.428,149.8921,138.7115,140.1689,0.0659,,0.2678,0.7795,1.5168,,0.0000,,25.7095,,25.7401,,,,,,,,,,,11.2136,11.1338,0.1492,228.304,49.625,49.322,,,,,,,,,,,,
CalCOFI,2105SH,024,,2105_024u,09-May-2021 07:08:22,08-May-2021 23:08:22,33.48640,-117.77066,090.0 028.0,090.0,028.0,41.000,41.297,,11.3221,,11.2616,,11.2919,33.6712,,33.6724,33.6908,,33.6927,33.6826,3.0789,,3.2860,,3.0968,,3.2671,,,134.061,142.6462,141.6483,134.836,149.9148,140.1454,140.8969,0.0665,,0.2722,0.7869,1.5229,,0.0000,,25.6837,,25.7099,,,,,,,,,,,11.3170,11.2565,0.1492,230.738,49.737,49.968,,,,,,,,,,,,
CalCOFI,2105SH,024,,2105_024u,09-May-2021 07:08:23,08-May-2021 23:08:23,33.48640,-117.77066,090.0 028.0,090.0,028.0,40.000,40.290,,11.3196,,11.2188,,11.2692,33.6776,,33.6788,33.6881,,33.6900,33.6844,3.1138,,3.3225,,3.1561,,3.3285,,,135.580,144.2341,143.2419,137.418,151.5553,142.7749,143.0084,0.0677,,0.2810,0.8016,1.5295,,0.0000,,25.6891,,25.7155,,,,,,,,,,,11.3147,11.2139,0.1492,230.203,50.300,50.878,,,,,,,,,,,,
CalCOFI,2105SH,024,,2105_024u,09-May-2021 07:08:24,08-May-2021 23:08:24,33.48642,-117.77066,090.0 028.0,090.0,028.0,39.000,39.282,,11.4085,,11.3130,,11.3608,33.6603,,33.6615,33.6924,,33.6943,33.6779,3.1574,,3.3681,,3.1647,,3.3374,,,137.482,146.2225,145.2374,137.793,153.6094,143.1568,144.1971,0.0747,,0.3322,0.8877,1.5369,,0.0000,,25.6594,,25.7017,,,,,,,,,,,11.4037,11.3082,0.1492,233.008,51.095,51.119,,,,,,,,,,,,
CalCOFI,2105SH,024,,2105_024u,09-May-2021 07:08:25,08-May-2021 23:08:25,33.48642,-117.77066,090.0 028.0,090.0,028.0,38.000,38.275,,11.4335,,11.3976,,11.4156,33.6608,,33.6620,33.6716,,33.6735,33.6678,3.1811,,3.3929,,3.1705,,3.3434,,,138.515,147.3024,146.3212,138.052,154.7251,143.4206,144.8709,0.0778,,0.3547,0.9259,1.5449,,0.0000,,25.6552,,25.6701,,,,,,,,,,,11.4288,11.3929,0.1492,233.385,51.506,51.299,,,,,,,,,,,,
CalCOFI,2105SH,024,,2105_024u,09-May-2021 07:08:26,08-May-2021 23:08:26,33.48642,-117.77066,090.0 028.0,090.0,028.0,37.000,37.268,,11.5090,,11.4005,,11.4548,33.6529,,33.6541,33.6817,,33.6836,33.6689,3.2076,,3.4206,,3.1910,,3.3646,,,139.669,148.5088,147.5319,138.944,155.9714,144.3290,145.9305,0.0801,,0.3715,0.9542,1.5538,,0.0000,,25.6352,,25.6774,,,,,,,,,,,11.5043,11.3959,0.1492,235.266,52.015,51.638,,,,,,,,,,,,
CalCOFI,2105SH,024,,2105_024u,09-May-2021 07:08:27,08-May-2021 23:08:27,33.48642,-117.77066,090.0 028.0,090.0,028.0,36.000,36.260,,11.4977,,11.3879,,11.4428,33.6593,,33.6605,33.6791,,33.6810,33.6708,3.2765,,3.4927,,3.2451,,3.4207,,,142.669,151.6450,150.6793,141.299,159.2114,146.7273,148.7033,0.0833,,0.3947,0.9935,1.5636,,0.0000,,25.6422,,25.6777,,,,,,,,,,,11.4932,11.3834,0.1492,234.570,53.122,52.498,,,,,,,,,,,,
CalCOFI,2105SH,024,,2105_024u,09-May-2021 07:08:29,08-May-2021 23:08:29,33.48642,-117.77068,090.0 028.0,090.0,028.0,35.000,35.253,,11.5600,,11.4400,,11.5000,33.6410,,33.6422,33.6779,,33.6798,33.6610,3.3647,,3.5849,,3.3373,,3.5162,,,146.514,155.6645,154.7132,145.314,163.3640,150.8163,152.7648,0.0839,,0.3991,1.0009,1.5752,,0.0000,,25.6165,,25.6672,,,,,,,,,,,11.5556,11.4357,0.1492,236.996,54.618,54.049,,,,,,,,,,,,
CalCOFI,2105SH,024,,2105_024u,09-May-2021 07:08:30,08-May-2021 23:08:30,33.48642,-117.77068,090.0 028.0,090.0,028.0,34.000,34.246,,11.6866,,11.5123,,11.5995,33.6440,,33.6452,33.6696,,33.6715,33.6584,3.4186,,3.6413,,3.4483,,3.6311,,,148.865,158.1223,157.1798,150.151,165.9031,155.7423,156.4611,0.1137,,0.6130,1.3675,1.5897,,0.0000,,25.5954,,25.6475,,,,,,,,,,,11.6823,11.5081,0.1492,238.986,55.643,55.929,,,,,,,,,,,,
CalCOFI,2105SH,024,,2105_024u,09-May-2021 07:08:31,08-May-2021 23:08:31,33.48643,-117.77068,090.0 028.0,090.0,028.0,33.000,33.238,,11.8000,,11.7184,,11.7592,33.6390,,33.6402,33.6512,,33.6531,33.6467,3.4722,,3.6973,,3.4660,,3.6495,,,151.202,160.5654,159.6316,150.926,168.4271,156.5316,158.0816,0.1722,,1.0207,2.0870,1.6053,,0.0000,,25.5704,,25.5950,,,,,,,,,,,11.7958,11.7142,0.1492,241.339,56.648,56.454,,,,,,,,,,,,
CalCOFI,2105SH,024,,2105_024u,09-May-2021 07:08:33,08-May-2021 23:08:33,33.48644,-117.77068,090.0 028.0,090.0,028.0,32.000,32.231,,11.7698,,11.7251,,11.7475,33.6154,,33.6166,33.6430,,33.6449,33.6308,3.5393,,3.7675,,3.4807,,3.6647,,,154.125,163.6211,162.6982,151.570,171.5839,157.1874,159.9428,0.1424,,0.8151,1.7205,1.6207,,0.0000,,25.5577,,25.5874,,,,,,,,,,,11.7657,11.7211,0.1492,242.526,57.697,56.699,,,,,,,,,,,,
CalCOFI,2105SH,024,,2105_024u,09-May-2021 07:08:34,08-May-2021 23:08:34,33.48644,-117.77066,090.0 028.0,090.0,028.0,31.000,31.224,,11.8862,,11.7768,,11.8315,33.6280,,33.6292,33.6504,,33.6523,33.6408,3.5219,,3.7493,,3.5113,,3.6964,,,153.370,162.8318,161.9061,152.903,170.7685,158.5450,160.2256,0.1500,,0.8679,1.8140,1.6355,,0.0000,,25.5457,,25.5836,,,,,,,,,,,11.8822,11.7729,0.1492,243.645,57.560,57.263,,,,,,,,,,,,
CalCOFI,2105SH,024,,2105_024u,09-May-2021 07:09:26,08-May-2021 23:09:26,33.48656,-117.77067,090.0 028.0,090.0,028.0,30.000,30.216,,12.9793,,13.0107,,12.9950,33.6627,,33.6639,33.6588,,33.6607,33.6623,3.6188,,3.8506,,3.6983,,3.8901,,,157.620,167.2747,166.3650,161.082,175.3585,166.8745,166.6198,0.2669,,1.6458,3.2519,1.8226,,0.0000,,25.3633,,25.3544,,,,,,,,,,,12.9752,13.0066,0.1534,261.024,60.508,61.864,30,12.979,,,167.43,2.823,0.547,6.48,0.159,0.31,1.00,14.68
CalCOFI,2105SH,024,,2105_024u,09-May-2021 07:09:50,08-May-2021 23:09:50,33.48662,-117.77066,090.0 028.0,090.0,028.0,29.000,29.209,,12.9412,,12.9485,,12.9449,33.6570,,33.6582,33.6598,,33.6617,33.6600,3.7942,,4.0341,,3.8263,,4.0227,,,165.258,175.2595,174.3783,166.656,183.6076,172.5511,173.4647,0.2477,,1.5225,3.0157,1.8083,,0.0000,,25.3650,,25.3657,,,,,,,,,,,12.9372,12.9445,0.1556,260.836,63.401,63.948,,,,,,,,,,,,
CalCOFI,2105SH,024,,2105_024u,09-May-2021 07:09:52,08-May-2021 23:09:52,33.48664,-117.77066,090.0 028.0,090.0,028.0,28.000,28.202,,13.0788,,13.0640,,13.0714,33.6544,,33.6556,33.6667,,33.6686,33.6621,3.7671,,4.0057,,3.7977,,3.9931,,,164.083,174.0312,173.1456,165.412,182.3386,171.2842,172.2149,0.2612,,1.6094,3.1818,1.8248,,0.0000,,25.3356,,25.3481,,,,,,,,,,,13.0749,13.0602,0.1556,263.610,63.126,63.623,,,,,,,,,,,,
CalCOFI,2105SH,024,,2105_024u,09-May-2021 07:09:54,08-May-2021 23:09:54,33.48664,-117.77065,090.0 028.0,090.0,028.0,27.000,27.195,,13.1762,,13.1791,,13.1777,33.6652,,33.6664,33.6727,,33.6746,33.6705,3.7618,,4.0002,,3.9176,,4.1173,,,163.852,173.7897,172.9032,170.640,182.0891,176.6085,174.7559,0.2505,,1.5406,3.0502,1.8480,,0.0000,,25.3245,,25.3298,,,,,,,,,,,13.1725,13.1754,0.1556,264.643,63.167,65.792,,,,,,,,,,,,
CalCOFI,2105SH,024,,2105_024u,09-May-2021 07:09:56,08-May-2021 23:09:56,33.48664,-117.77064,090.0 028.0,090.0,028.0,26.000,26.187,,13.2455,,13.2673,,13.2564,33.6661,,33.6673,33.6744,,33.6763,33.6718,4.0109,,4.2607,,4.2956,,4.5088,,,174.705,185.1354,184.2895,187.104,193.8104,193.3756,188.8326,0.2521,,1.5509,3.0698,1.8771,,0.0000,,25.3113,,25.3133,,,,,,,,,,,13.2419,13.2637,0.1556,265.876,67.447,72.271,,,,,,,,,,,,
CalCOFI,2105SH,024,,2105_024u,09-May-2021 07:09:57,08-May-2021 23:09:57,33.48664,-117.77064,090.0 028.0,090.0,028.0,25.000,25.180,,13.3555,,13.3840,,13.3698,33.6598,,33.6610,33.6637,,33.6656,33.6633,4.3418,,4.6068,,4.5729,,4.7960,,,189.125,200.2101,199.4181,199.188,209.3840,205.6820,202.5501,0.2896,,1.7893,3.5311,1.9100,,0.0000,,25.2843,,25.2815,,,,,,,,,,,13.3520,13.3805,0.1556,268.421,73.174,77.114,,,,,,,,,,,,
CalCOFI,2105SH,024,,2105_024u,09-May-2021 07:09:59,08-May-2021 23:09:59,33.48666,-117.77064,090.0 028.0,090.0,028.0,24.000,24.173,,13.4379,,13.4580,,13.4480,33.6503,,33.6515,33.6487,,33.6506,33.6511,4.6043,,4.8813,,4.6129,,4.8374,,,200.564,212.1684,211.4192,200.938,221.7382,207.4642,209.4417,0.3493,,2.1547,4.2654,1.9450,,0.0000,,25.2602,,25.2549,,,,,,,,,,,13.4346,13.4547,0.1556,270.685,77.725,77.900,,,,,,,,,,,,
CalCOFI,2105SH,024,,2105_024u,09-May-2021 07:10:00,08-May-2021 23:10:00,33.48666,-117.77064,090.0 028.0,090.0,028.0,23.000,23.166,,13.5837,,13.6171,,13.6004,33.6292,,33.6304,33.6424,,33.6443,33.6374,4.5899,,4.8662,,4.5339,,4.7556,,,199.945,211.5213,210.7698,197.505,221.0697,203.9680,207.3689,0.4630,,2.8036,5.6640,1.9826,,0.0000,,25.2143,,25.2176,,,,,,,,,,,13.5805,13.6139,0.1556,275.034,77.702,76.813,,,,,,,,,,,,
CalCOFI,2105SH,024,,2105_024u,09-May-2021 07:10:02,08-May-2021 23:10:02,33.48666,-117.77064,090.0 028.0,090.0,028.0,22.000,22.158,,13.7042,,13.7197,,13.7120,33.6408,,33.6420,33.6485,,33.6504,33.6462,4.5260,,4.7994,,4.6183,,4.8430,,,197.162,208.6120,207.8500,201.182,218.0640,207.7127,207.7814,0.5194,,3.1024,6.3577,2.0221,,0.0000,,25.1986,,25.2013,,,,,,,,,,,13.7011,13.7166,0.1556,276.503,76.813,78.408,,,,,,,,,,,,
CalCOFI,2105SH,024,,2105_024u,09-May-2021 07:10:03,08-May-2021 23:10:03,33.48666,-117.77064,090.0 028.0,090.0,028.0,21.000,21.151,,13.7921,,13.8142,,13.8032,33.6462,,33.6474,33.6478,,33.6497,33.6486,4.5595,,4.8344,,4.7657,,4.9957,,,198.627,210.1435,209.3870,207.608,219.6462,214.2570,211.8220,0.5871,,3.4410,7.1905,2.0649,,0.0000,,25.1846,,25.1813,,,,,,,,,,,13.7891,13.8113,0.1556,277.808,77.524,81.067,,,,,,,,,,,,
CalCOFI,2105SH,024,,2105_024u,09-May-2021 07:10:04,08-May-2021 23:10:04,33.48666,-117.77064,090.0 028.0,090.0,028.0,20.000,20.144,,14.0259,,14.1872,,14.1066,33.6453,,33.6465,33.6615,,33.6634,33.6550,4.7566,,5.0406,,5.0326,,5.2722,,,207.222,219.1287,218.4044,219.248,228.9288,226.1113,222.2579,0.6963,,3.9408,8.5337,2.1180,,0.0000,,25.1354,,25.1142,,,,,,,,,,,14.0231,14.1843,0.1556,282.467,81.264,86.268,,,,,,,,,,,,
CalCOFI,2105SH,024,,2105_024u,09-May-2021 07:10:06,08-May-2021 23:10:06,33.48668,-117.77064,090.0 028.0,090.0,028.0,19.000,19.137,,14.4920,,14.5459,,14.5190,33.6551,,33.6563,33.6668,,33.6687,33.6625,5.2373,,5.5433,,5.5363,,5.7939,,,228.185,241.0434,240.3975,241.212,251.5689,248.4796,244.4386,0.6590,,3.7765,8.0749,2.1976,,0.0000,,25.0449,,25.0424,,,,,,,,,,,14.4892,14.5431,0.1556,291.069,90.332,95.599,,,,,,,,,,,,
CalCOFI,2105SH,024,,2105_024u,09-May-2021 07:10:08,08-May-2021 23:10:08,33.48668,-117.77064,090.0 028.0,090.0,028.0,18.000,18.129,,14.7922,,14.7802,,14.7862,33.6522,,33.6534,33.6630,,33.6649,33.6592,5.7310,,6.0596,,5.9769,,6.2503,,,249.709,263.5446,262.9791,260.419,274.8149,268.0402,265.5097,0.6418,,3.6985,7.8633,2.2959,,0.0000,,24.9785,,24.9894,,,,,,,,,,,14.7895,14.7776,0.1556,297.366,99.432,103.680,,,,,,,,,,,,
CalCOFI,2105SH,024,,2105_024u,09-May-2021 07:10:09,08-May-2021 23:10:09,33.48668,-117.77064,090.0 028.0,090.0,028.0,17.000,17.122,,15.0475,,15.0482,,15.0479,33.6331,,33.6343,33.6595,,33.6614,33.6479,6.1276,,6.4743,,6.3966,,6.6850,,,267.008,281.6290,281.1282,278.724,293.4979,286.6822,283.9052,0.6127,,3.5633,7.5054,2.3855,,0.0000,,24.9084,,24.9286,,,,,,,,,,,15.0450,15.0456,0.1556,304.010,106.847,111.558,,,,,,,,,,,,
CalCOFI,2105SH,024,,2105_024u,09-May-2021 07:10:11,08-May-2021 23:10:11,33.48668,-117.77064,090.0 028.0,090.0,028.0,16.000,16.115,,15.3438,,15.3120,,15.3279,33.6228,,33.6240,33.6316,,33.6335,33.6288,6.4734,,6.8360,,6.6720,,6.9703,,,282.098,297.4040,296.9597,290.745,309.7951,298.9245,297.9421,0.6087,,3.5444,7.4562,2.4716,,0.0000,,24.8355,,24.8494,,,,,,,,,,,15.3414,15.3096,0.1556,310.929,113.535,116.947,,,,,,,,,,,,
CalCOFI,2105SH,024,,2105_024u,09-May-2021 07:10:12,08-May-2021 23:10:12,33.48669,-117.77064,090.0 028.0,090.0,028.0,15.000,15.108,,15.6235,,15.6390,,15.6313,33.6059,,33.6071,33.6295,,33.6314,33.6193,6.6217,,6.9911,,6.7389,,7.0396,,,288.580,304.1803,303.7602,293.682,316.7957,301.9156,302.8379,0.5917,,3.4632,7.2471,2.5639,,0.0000,,24.7605,,24.7752,,,,,,,,,,,15.6212,15.6367,0.1556,318.052,116.766,118.885,,,,,,,,,,,,
CalCOFI,2105SH,024,,2105_024u,09-May-2021 07:10:13,08-May-2021 23:10:13,33.48670,-117.77064,090.0 028.0,090.0,028.0,14.000,14.100,,15.9077,,15.9101,,15.9089,33.6036,,33.6048,33.6164,,33.6183,33.6116,6.7042,,7.0774,,6.7998,,7.1026,,,292.193,307.9574,307.5508,296.356,320.6978,304.6388,306.0948,0.5895,,3.4526,7.2200,2.6667,,0.0000,,24.6950,,24.7043,,,,,,,,,,,15.9055,15.9079,0.1556,324.259,118.882,120.591,,,,,,,,,,,,
CalCOFI,2105SH,024,,2105_024u,09-May-2021 07:10:15,08-May-2021 23:10:15,33.48670,-117.77064,090.0 028.0,090.0,028.0,13.000,13.093,,16.1419,,16.1470,,16.1445,33.5935,,33.5947,33.6219,,33.6238,33.6093,6.7927,,7.1699,,6.9388,,7.2466,,,296.068,312.0083,311.6161,302.429,324.8828,310.8236,311.2199,0.5888,,3.4492,7.2114,2.7685,,0.0000,,24.6341,,24.6548,,,,,,,,,,,16.1399,16.1450,0.1556,330.034,120.998,123.635,,,,,,,,,,,,
CalCOFI,2105SH,024,,2105_024u,09-May-2021 07:10:16,08-May-2021 23:10:16,33.48670,-117.77064,090.0 028.0,090.0,028.0,12.000,12.086,,16.7452,,16.7602,,16.7527,33.6097,,33.6109,33.6691,,33.6710,33.6410,6.8915,,7.2732,,7.1227,,7.4371,,,300.412,316.5495,316.1736,310.477,329.5743,319.0197,317.5967,0.6858,,3.8952,8.4045,2.8595,,0.0000,,24.5074,,24.5495,,,,,,,,,,,16.7433,16.7583,0.1556,342.081,124.221,128.472,,,,,,,,,,,,
CalCOFI,2105SH,024,,2105_024u,09-May-2021 07:10:18,08-May-2021 23:10:18,33.48670,-117.77064,090.0 028.0,090.0,028.0,11.000,11.079,,17.1765,,17.1360,,17.1563,33.6541,,33.6553,33.6957,,33.6976,33.6765,7.0534,,7.4425,,7.2870,,7.6073,,,307.489,323.9478,323.5984,317.658,337.2175,326.3329,324.9657,0.7202,,4.0425,8.8277,2.9457,,0.0000,,24.4401,,24.4816,,,,,,,,,,,17.1747,17.1342,0.1556,348.469,128.235,132.410,11,17.177,,,323.82,8.855,0.842,0.17,0.00,0.05,0.30,7.27
CalCOFI,2105SH,024,,2105_024u,09-May-2021 07:10:53,08-May-2021 23:10:53,33.48681,-117.77060,090.0 028.0,090.0,028.0,10.000,10.072,,17.9056,,17.9294,,17.9175,33.7052,,33.7064,33.6903,,33.6922,33.6993,7.5142,,7.9245,,7.5714,,7.9019,,,327.621,344.9938,344.7196,330.119,358.9601,339.0233,341.8715,0.4449,,2.7044,5.4414,3.5614,,0.0000,,24.3049,,24.2878,,,,,,,,,,,17.9038,17.9277,0.1593,361.328,138.531,139.650,,,,,,,,,,,,
CalCOFI,2105SH,024,,2105_024u,09-May-2021 07:11:01,08-May-2021 23:11:01,33.48684,-117.77060,090.0 028.0,090.0,028.0,9.000,9.064,,17.7562,,17.7573,,17.7568,33.6907,,33.6919,33.6918,,33.6937,33.6928,7.5233,,7.9340,,7.6052,,7.9369,,,328.009,345.3994,345.1267,331.581,359.3791,340.5122,342.8195,0.4801,,2.8958,5.8743,3.4265,,0.0000,,24.3292,,24.3298,,,,,,,,,,,17.7546,17.7557,0.1597,358.978,138.331,139.842,,,,,,,,,,,,
CalCOFI,2105SH,024,,2105_024u,09-May-2021 07:11:03,08-May-2021 23:11:03,33.48684,-117.77060,090.0 028.0,090.0,028.0,8.000,8.057,,17.8524,,17.8475,,17.8500,33.6850,,33.6862,33.6912,,33.6931,33.6897,7.3888,,7.7933,,7.3740,,7.6974,,,322.157,339.2817,338.9872,321.505,353.0590,330.2507,334.6190,0.4439,,2.6989,5.4291,3.4112,,0.0000,,24.3014,,24.3074,,,,,,,,,,,17.8511,17.8462,0.1597,361.592,136.103,135.821,,,,,,,,,,,,
CalCOFI,2105SH,024,,2105_024u,09-May-2021 07:11:05,08-May-2021 23:11:05,33.48684,-117.77060,090.0 028.0,090.0,028.0,7.000,7.050,,17.9567,,17.9457,,17.9512,33.6721,,33.6733,33.6783,,33.6802,33.6768,7.0087,,7.3958,,6.9700,,7.2789,,,305.591,321.9636,321.6071,303.902,335.1676,312.3237,316.9654,0.3412,,2.1062,4.1658,3.3885,,0.0000,,24.2661,,24.2735,,,,,,,,,,,17.9555,17.9445,0.1597,364.918,129.346,128.610,,,,,,,,,,,,
CalCOFI,2105SH,024,,2105_024u,09-May-2021 07:11:07,08-May-2021 23:11:07,33.48684,-117.77060,090.0 028.0,090.0,028.0,6.000,6.043,,18.0419,,18.0318,,18.0369,33.6524,,33.6536,33.6547,,33.6566,33.6551,6.8046,,7.1824,,6.7754,,7.0774,,,296.705,312.6742,312.2845,295.428,325.5707,303.6937,307.9891,0.2053,,1.2441,2.4942,3.3566,,0.0000,,24.2302,,24.2344,,,,,,,,,,,18.0409,18.0308,0.1597,368.314,125.769,125.206,,,,,,,,,,,,
CalCOFI,2105SH,024,,2105_024u,09-May-2021 07:11:09,08-May-2021 23:11:09,33.48684,-117.77060,090.0 028.0,090.0,028.0,5.000,5.036,,18.0345,,18.0392,,18.0369,33.6451,,33.6463,33.6444,,33.6463,33.6463,6.8243,,7.2030,,6.7896,,7.0921,,,297.564,313.5722,313.1857,296.052,326.4984,304.3292,308.7575,0.1629,,0.9570,1.9726,3.3187,,0.0000,,24.2264,,24.2247,,,,,,,,,,,18.0336,18.0384,0.1597,368.636,126.110,125.480,,,,,,,,,,,,
CalCOFI,2105SH,024,,2105_024u,09-May-2021 07:11:11,08-May-2021 23:11:11,33.48686,-117.77060,090.0 028.0,090.0,028.0,4.000,4.029,,18.0238,,18.0413,,18.0326,33.6483,,33.6495,33.6453,,33.6472,33.6484,6.7248,,7.0989,,6.8198,,7.1233,,,293.223,309.0341,308.6313,297.367,321.8102,305.6684,307.1499,0.1458,,0.8387,1.7623,3.2829,,0.0000,,24.2314,,24.2248,,,,,,,,,,,18.0232,18.0407,0.1597,368.128,124.248,126.043,,,,,,,,,,,,
CalCOFI,2105SH,024,,2105_024u,09-May-2021 07:11:54,08-May-2021 23:11:54,33.48698,-117.77058,090.0 028.0,090.0,028.0,3.000,3.021,,18.0696,,18.0694,,18.0695,33.6458,,33.6470,33.6457,,33.6476,33.6473,6.7011,,7.0741,,6.7907,,7.0932,,,292.193,307.9574,307.5508,296.102,320.6978,304.3801,305.9655,0.1458,,0.8387,1.7623,3.1577,,0.0000,,24.2182,,24.2182,,,,,,,,,,,18.0691,18.0689,0.1662,369.345,123.915,125.572,3,18.070,33.6520,7.043,307.10,2.600,0.361,0.01,0.026,0.00,0.14,4.00
